Voltar ao catálogo

SL-16 DEB

AtivoLEO
NORAD 39707·DEBRIS·🇷🇺 Russia

Lançado Dec 25, 1992 de Baikonur Cosmodrome

Loading…

Próximas Passagens (próximas 24 horas)

TLE

AtualizadoSource: Space-Track

Época: Sep 13, 2026, 23:09 UTC

1 39707U 92093JX  26256.96477599  .00001397  00000-0  53489-3 0  9998
2 39707  71.1103 344.6225 0089422 350.5391   9.4051 14.30114906 17453

Acompanhe SL-16 DEB em tempo real com AllMySat

Download on the App Store